Terug naar catalogus

HULIANWANG DIGUI-70

ActiefCommunicatiePO
NORAD 65230·PAYLOAD·🇨🇳 China

Gelanceerd Aug 17, 2025 vanaf Taiyuan Satellite Launch Center

Loading…

Volgende Passages (komende 24 uur)

TLE

VersSource: Space-Track

Epoch: Sep 14, 2026, 22:36 UTC

1 65230U 25178C   26257.94220234  .00000063  00000-0  11296-3 0  9998
2 65230  86.4999 343.0764 0001576 106.9744 253.1563 13.24412570 52191

Volg HULIANWANG DIGUI-70 in realtime met AllMySat

Download on the App Store